Location: Buckhorn Peak
(37.6641°N, 120.1241°W)
Time: 01:58:25
(UTC+00:00)

Tiros 1 - All Passes

Search period start: 19 November 2025 00:00
Search period end: 29 November 2025 00:00
Orbit: 619 x 650 km, 48.4° (Epoch: 17 November)

Date Brightness Start Highest point End Pass type
(mag) Time Alt. Az. Time Alt. Az. Time Alt. Az.
19 Nov - 02:38:22 10° SW 02:42:52 58° SE 02:47:21 10° ENE visible
19 Nov - 04:20:47 10° W 04:24:57 34° NNW 04:29:08 10° NE visible
19 Nov - 06:04:22 10° NW 06:07:50 21° N 06:11:18 10° NE night (unlit)
19 Nov - 07:46:43 10° NW 07:50:47 31° NNE 07:54:51 10° E night (unlit)
19 Nov - 09:28:25 10° WNW 09:32:59 73° SW 09:37:34 10° SE night (unlit)
19 Nov - 11:12:38 10° WSW 11:14:15 12° SW 11:15:54 10° SSW night (unlit)
20 Nov - 01:19:43 10° S 01:23:11 21° SE 01:26:38 10° E visible
20 Nov - 03:00:10 10° WSW 03:04:44 70° NNW 03:09:17 10° NE visible
20 Nov - 04:43:27 10° WNW 04:47:13 25° NNW 04:50:59 10° NE visible
20 Nov - 06:26:39 10° NW 06:30:14 22° N 06:33:49 10° ENE night (unlit)
20 Nov - 08:08:30 10° NW 08:12:55 49° NNE 08:17:21 10° ESE night (unlit)
20 Nov - 09:50:36 10° WNW 09:54:43 34° SW 09:58:51 10° SSE night (unlit)
21 Nov - 01:40:25 10° SSW 01:44:48 46° SE 01:49:11 10° ENE visible
21 Nov - 03:22:28 10° W 03:26:46 39° NNW 03:31:04 10° NE visible
21 Nov - 05:06:05 10° NW 05:09:35 21° N 05:13:05 10° NE night (unlit)
21 Nov - 06:48:38 10° NW 06:52:34 28° NNE 06:56:30 10° ENE night (unlit)
21 Nov - 08:30:19 10° NW 08:34:53 89° SW 08:39:29 10° SE night (unlit)
21 Nov - 10:13:38 10° W 10:16:17 15° SW 10:18:55 10° SSW night (unlit)
22 Nov - 00:22:13 10° S 00:25:10 17° SE 00:28:07 10° E daylight
22 Nov - 02:02:01 10° WSW 02:06:36 84° NW 02:11:11 10° NE visible
22 Nov - 03:45:05 10° WNW 03:48:59 27° NNW 03:52:53 10° NE visible
22 Nov - 05:28:28 10° NW 05:31:59 21° N 05:35:30 10° NE night (unlit)
22 Nov - 07:10:25 10° NW 07:14:45 42° NNE 07:19:06 10° E night (unlit)
22 Nov - 08:52:22 10° WNW 08:56:40 42° SW 09:00:59 10° SSE night (unlit)
23 Nov - 00:42:31 10° SSW 00:46:45 37° SE 00:50:58 10° ENE daylight
23 Nov - 02:24:11 10° W 02:28:36 45° NNW 02:33:00 10° NE visible
23 Nov - 04:07:46 10° WNW 04:11:19 22° N 04:14:52 10° NE visible
23 Nov - 05:50:31 10° NW 05:54:20 25° NNE 05:58:09 10° ENE night (unlit)
23 Nov - 07:32:13 10° NW 07:36:46 75° NNE 07:41:20 10° ESE night (unlit)
23 Nov - 09:15:01 10° W 09:18:16 19° SW 09:21:31 10° S night (unlit)
23 Nov - 23:25:00 10° SSE 23:27:10 13° SE 23:29:20 10° E daylight
24 Nov - 01:03:54 10° SW 01:08:30 80° SE 01:13:04 10° ENE visible
24 Nov - 02:46:44 10° W 02:50:45 29° NNW 02:54:46 10° NE visible
24 Nov - 04:30:14 10° NW 04:33:43 21° N 04:37:11 10° NE visible
24 Nov - 06:12:20 10° NW 06:16:34 36° NNE 06:20:47 10° E night (unlit)
24 Nov - 07:54:10 10° WNW 07:58:36 53° SW 08:03:02 10° SE night (unlit)
24 Nov - 23:44:41 10° SSW 23:48:42 30° SE 23:52:41 10° ENE daylight
25 Nov - 01:25:55 10° WSW 01:30:25 54° NNW 01:34:54 10° NE visible
25 Nov - 03:09:24 10° WNW 03:13:03 23° N 03:16:41 10° NE visible
25 Nov - 04:52:22 10° NW 04:56:05 24° NNE 04:59:47 10° ENE night (unlit)
25 Nov - 06:34:06 10° NW 06:38:38 62° NNE 06:43:09 10° ESE night (unlit)
25 Nov - 08:16:34 10° W 08:20:14 24° SW 08:23:55 10° S night (unlit)
26 Nov - 00:05:49 10° SW 00:10:22 65° SE 00:14:55 10° ENE daylight
26 Nov - 01:48:22 10° W 01:52:31 33° NNW 01:56:39 10° NE visible
26 Nov - 03:31:57 10° NW 03:35:25 21° N 03:38:53 10° NE visible
26 Nov - 05:14:14 10° NW 05:18:21 32° NNE 05:22:27 10° E night (unlit)
26 Nov - 06:55:58 10° WNW 07:00:30 67° SW 07:05:01 10° SE night (unlit)
26 Nov - 08:41:09 10° WSW 08:41:43 10° SW 08:42:17 10° SW night (unlit)
26 Nov - 22:46:56 10° S 22:50:37 24° SE 22:54:19 10° E daylight
27 Nov - 00:27:40 10° WSW 00:32:14 64° NNW 00:36:48 10° NE daylight
27 Nov - 02:11:01 10° WNW 02:14:46 24° NNW 02:18:31 10° NE visible
27 Nov - 03:54:10 10° NW 03:57:48 23° N 04:01:25 10° ENE visible
27 Nov - 05:35:59 10° NW 05:40:27 52° NNE 05:44:54 10° ESE night (unlit)
27 Nov - 07:18:12 10° WNW 07:22:11 30° SW 07:26:10 10° SSE night (unlit)
27 Nov - 23:07:46 10° SW 23:12:16 52° SE 23:16:44 10° ENE daylight
28 Nov - 00:50:00 10° W 00:54:17 37° NNW 00:58:33 10° NE daylight
28 Nov - 02:33:37 10° NW 02:37:08 21° N 02:40:37 10° NE visible
28 Nov - 04:16:06 10° NW 04:20:06 29° NNE 04:24:05 10° ENE visible
28 Nov - 05:57:48 10° WNW 06:02:22 82° SW 06:06:56 10° SE night (unlit)
28 Nov - 07:41:28 10° W 07:43:42 13° SW 07:45:55 10° SSW night (unlit)
28 Nov - 21:49:19 10° S 21:52:35 19° SE 21:55:49 10° E daylight
28 Nov - 23:29:27 10° WSW 23:34:04 78° NW 23:38:40 10° NE daylight
